Date String (YYYY-MM-DD hh:mm:ss) UTC,Instrument flags,absolute air pressure of the measurement (hPa),sample flow rate (lpm),inlet stack bypass flow (lpm),air temperature of the measurement (°C),ambient temperature measured by the external sensor (°C),aerosol sample conditioner tube jacket temperature (°C),OPC LED temperature (°C),internal box temperature (°C),relative humidity of the measurement (%),span deviation,mass concentration of particles derived from Lorenz-Mie calculation of OPC scattering (μg/m³),mass concentration of particles derived from Lorenz-Mie calculation of OPC scattering (μg/m³),mass concentration of particles derived from Lorenz-Mie calculation of OPC scattering (μg/m³)
DateTimeUTC,F1_M11,P_M11,Q1_M11,Q2_M11,T1_M11,T2_M11,T3_M11,T4_M11,T5_M11,U1_M11,ZSPAN_M11,X2_M11,X0_M11,X1_M11
2024-03-27 21:00:00,SystemResetWarning,0827.1,5.00,000.00,020.2,019.6,000.0,028.7,022.0,10.6,0000.0,0001.09,0003.40,0000.65
2024-03-27 21:01:00,SystemResetWarning,0827.1,5.00,000.00,020.2,019.6,000.0,028.7,022.0,10.7,0000.0,0001.08,0003.25,0000.65
2024-03-27 21:02:00,SystemResetWarning,0827.0,4.99,000.00,020.2,019.6,000.0,028.7,022.0,10.9,0000.0,0001.07,0003.14,0000.65
2024-03-27 21:03:00,SystemResetWarning,0826.9,4.99,000.00,020.2,019.6,000.0,028.7,022.0,10.6,0000.0,0001.06,0003.10,0000.65
2024-03-27 21:04:00,SystemResetWarning,0827.0,5.02,000.00,020.2,019.6,000.0,028.7,021.9,11.3,0000.0,0001.07,0003.37,0000.65
2024-03-27 21:05:00,SystemResetWarning,0827.0,5.00,000.00,020.2,019.6,000.0,028.7,022.0,10.6,0000.0,0001.06,0003.85,0000.65
2024-03-27 21:06:00,SystemResetWarning,0827.0,4.99,000.00,020.2,019.6,000.0,028.7,022.0,09.7,0000.0,0001.07,0003.77,0000.65
2024-03-27 21:07:00,SystemResetWarning,0827.0,5.00,000.00,020.2,019.6,000.0,028.7,022.0,10.6,0000.0,0001.08,0003.79,0000.65
2024-03-27 21:08:00,SystemResetWarning,0827.0,5.00,000.00,020.2,019.6,000.0,028.7,021.9,09.9,0000.0,0001.09,0003.81,0000.65
2024-03-27 21:09:00,SystemResetWarning,0826.9,5.00,000.00,020.2,019.6,000.0,028.7,022.0,09.5,0000.0,0001.07,0003.69,0000.66
2024-03-27 21:10:00,SystemResetWarning,0827.0,5.00,000.00,020.2,019.6,000.0,028.7,022.0,09.5,0000.0,0001.03,0003.31,0000.66
2024-03-27 21:11:00,SystemResetWarning,0827.0,4.99,000.00,020.2,019.6,000.0,028.7,021.9,10.3,0000.0,0001.02,0003.67,0000.66
2024-03-27 21:12:00,SystemResetWarning,0827.0,5.00,000.00,020.2,019.6,000.0,028.7,021.9,09.9,0000.0,0001.01,0003.67,0000.66
2024-03-27 21:13:00,SystemResetWarning,0826.9,5.01,000.00,020.2,019.6,000.0,028.7,021.9,09.6,0000.0,0001.02,0003.97,0000.66
2024-03-27 21:14:00,SystemResetWarning,0826.9,5.01,000.00,020.2,019.6,000.0,028.7,021.9,09.8,0000.0,0001.02,0004.41,0000.66
2024-03-27 21:15:00,SystemResetWarning,0826.9,5.00,000.00,020.2,019.6,000.0,028.7,021.9,10.3,0000.0,0000.99,0004.22,0000.65
2024-03-27 21:16:00,SystemResetWarning,0827.0,5.00,000.00,020.2,019.6,000.0,028.7,021.9,10.0,0000.0,0001.00,0003.55,0000.65
2024-03-27 21:17:00,SystemResetWarning,0827.0,5.00,000.00,020.2,019.6,000.0,028.7,021.9,09.5,0000.0,0001.00,0003.56,0000.66
2024-03-27 21:18:00,SystemResetWarning,0826.9,5.00,000.00,020.2,019.6,000.0,028.6,021.9,10.4,0000.0,0000.99,0003.50,0000.66
2024-03-27 21:19:00,SystemResetWarning,0826.9,5.00,000.00,020.2,019.6,000.0,028.7,021.9,10.1,0000.0,0000.99,0003.50,0000.67
2024-03-27 21:20:00,SystemResetWarning,0826.9,5.00,000.00,020.2,019.6,000.0,028.7,022.0,10.9,0000.0,0000.99,0003.54,0000.67
2024-03-27 21:21:00,SystemResetWarning,0826.8,5.00,000.00,020.2,019.6,000.0,028.6,021.9,10.0,0000.0,0001.00,0003.61,0000.67
2024-03-27 21:22:00,SystemResetWarning,0826.9,5.00,000.00,020.2,019.6,000.0,028.6,022.0,09.7,0000.0,0001.01,0003.19,0000.68
2024-03-27 21:23:00,SystemResetWarning,0826.9,5.01,000.00,020.2,019.6,000.0,028.6,022.0,09.6,0000.0,0001.04,0003.64,0000.68
2024-03-27 21:24:00,SystemResetWarning,0826.9,5.01,000.00,020.2,019.6,000.0,028.6,022.0,09.6,0000.0,0001.05,0003.34,0000.68
2024-03-27 21:25:00,SystemResetWarning,0827.0,5.01,000.00,020.2,019.6,000.0,028.6,021.9,09.9,0000.0,0001.08,0003.02,0000.69
2024-03-27 21:26:00,SystemResetWarning,0826.9,5.00,000.00,020.2,019.6,000.0,028.6,021.9,09.5,0000.0,0001.08,0003.00,0000.69
2024-03-27 21:27:00,SystemResetWarning,0826.9,5.00,000.00,020.2,019.6,000.0,028.6,021.9,09.5,0000.0,0001.06,0002.97,0000.69
2024-03-27 21:28:00,SystemResetWarning,0826.9,4.99,000.00,020.2,019.6,000.0,028.6,021.9,10.8,0000.0,0001.06,0002.99,0000.69
2024-03-27 21:29:00,SystemResetWarning,0826.9,4.99,000.00,020.2,019.6,000.0,028.6,021.9,10.4,0000.0,0001.05,0003.11,0000.68
2024-03-27 21:30:00,SystemResetWarning,0826.8,5.01,000.00,020.2,019.6,000.0,028.7,022.0,09.2,0000.0,0001.03,0003.06,0000.67
2024-03-27 21:31:00,SystemResetWarning,0826.8,5.01,000.00,020.2,019.6,000.0,028.6,022.0,09.4,0000.0,0001.02,0003.02,0000.67
2024-03-27 21:32:00,SystemResetWarning,0826.7,4.98,000.00,020.2,019.6,000.0,028.6,022.0,09.6,0000.0,0001.01,0002.96,0000.66
2024-03-27 21:33:00,SystemResetWarning,0826.8,4.99,000.00,020.2,019.6,000.0,028.6,022.0,10.2,0000.0,0000.97,0002.38,0000.66
2024-03-27 21:34:00,SystemResetWarning,0826.8,4.99,000.00,020.2,019.6,000.0,028.6,022.0,10.5,0000.0,0000.96,0001.88,0000.65
2024-03-27 21:35:00,SystemResetWarning,0826.8,5.00,000.00,020.2,019.6,000.0,028.6,021.9,10.3,0000.0,0000.96,0002.07,0000.66
2024-03-27 21:36:00,SystemResetWarning,0826.8,5.01,000.00,020.2,019.5,000.0,028.6,021.9,10.2,0000.0,0000.96,0002.24,0000.65
2024-03-27 21:37:00,SystemResetWarning,0826.8,5.00,000.00,020.2,019.5,000.0,028.6,021.9,10.4,0000.0,0000.96,0002.20,0000.65
2024-03-27 21:38:00,SystemResetWarning,0826.8,5.01,000.00,020.2,019.5,000.0,028.6,021.9,10.8,0000.0,0000.95,0002.17,0000.63
2024-03-27 21:39:00,SystemResetWarning,0826.7,5.00,000.00,020.2,019.5,000.0,028.6,021.9,11.1,0000.0,0000.94,0002.15,0000.63
2024-03-27 21:40:00,SystemResetWarning,0826.8,4.99,000.00,020.2,019.5,000.0,028.6,021.9,11.0,0000.0,0000.96,0002.08,0000.63
2024-03-27 21:41:00,SystemResetWarning,0826.8,5.00,000.00,020.2,019.5,000.0,028.6,021.9,10.3,0000.0,0000.97,0002.10,0000.63
2024-03-27 21:42:00,SystemResetWarning,0826.8,5.00,000.00,020.2,019.6,000.0,028.6,021.9,11.8,0000.0,0000.98,0002.09,0000.64
2024-03-27 21:43:00,SystemResetWarning,0826.9,5.00,000.00,020.2,019.6,000.0,028.6,021.9,11.1,0000.0,0001.00,0002.74,0000.64
2024-03-27 21:44:00,SystemResetWarning,0826.9,5.00,000.00,020.2,019.6,000.0,028.6,021.9,10.0,0000.0,0001.00,0003.49,0000.64
2024-03-27 21:45:00,SystemResetWarning,0826.9,4.99,000.00,020.2,019.6,000.0,028.6,021.9,10.4,0000.0,0001.02,0003.59,0000.63
2024-03-27 21:46:00,SystemResetWarning,0826.9,4.99,000.00,020.2,019.6,000.0,028.6,021.9,10.2,0000.0,0001.01,0003.50,0000.63
2024-03-27 21:47:00,SystemResetWarning,0826.9,4.99,000.00,020.2,019.6,000.0,028.6,021.9,10.0,0000.0,0001.00,0003.14,0000.63
2024-03-27 21:48:00,SystemResetWarning,0827.0,5.01,000.00,020.2,019.6,000.0,028.6,021.9,11.0,0000.0,0001.01,0003.20,0000.63
2024-03-27 21:49:00,SystemResetWarning,0827.0,5.01,000.00,020.2,019.6,000.0,028.6,021.9,11.0,0000.0,0001.10,0004.76,0000.64
2024-03-27 21:50:00,SystemResetWarning,0826.9,4.99,000.00,020.2,019.6,000.0,028.6,021.9,11.8,0000.0,0001.18,0005.19,0000.65
2024-03-27 21:51:00,SystemResetWarning,0827.0,4.99,000.00,020.2,019.6,000.0,028.6,021.9,10.9,0000.0,0001.18,0005.23,0000.65
2024-03-27 21:52:00,SystemResetWarning,0827.0,5.01,000.00,020.2,019.6,000.0,028.6,021.9,11.5,0000.0,0001.18,0005.85,0000.65
2024-03-27 21:53:00,SystemResetWarning,0827.0,5.01,000.00,020.2,019.6,000.0,028.6,021.9,11.2,0000.0,0001.21,0006.33,0000.64
2024-03-27 21:54:00,SystemResetWarning,0826.9,5.00,000.00,020.2,019.6,000.0,028.6,021.9,10.5,0000.0,0001.21,0006.01,0000.63
2024-03-27 21:55:00,SystemResetWarning,0827.0,4.99,000.00,020.2,019.6,000.0,028.6,021.9,11.1,0000.0,0001.21,0004.99,0000.63
2024-03-27 21:56:00,SystemResetWarning,0826.9,4.99,000.00,020.2,019.6,000.0,028.6,021.9,11.5,0000.0,0001.17,0004.87,0000.63
2024-03-27 21:57:00,SystemResetWarning,0827.0,5.00,000.00,020.2,019.6,000.0,028.6,022.0,10.7,0000.0,0001.16,0005.20,0000.63
2024-03-27 21:58:00,SystemResetWarning,0827.0,5.02,000.00,020.2,019.6,000.0,028.6,022.0,10.4,0000.0,0001.14,0005.89,0000.63
2024-03-27 21:59:00,SystemResetWarning,0827.0,5.01,000.00,020.2,019.6,000.0,028.6,022.0,10.7,0000.0,0001.14,0005.90,0000.64
